,,PressureMeas_1m,,PRMeasQMR101_1,,RHStat155_1m_1,,SRMeasQMS101R_1m,,TAStat155_1m_1,,GenWind_1,,GenWind_1,
2017-06-15, 00:00:07,VALID,918.266,VALID,0.0,VALID,91.357,VALID,-0.037,VALID,20.93,VALID,118.0,VALID,1.776,
2017-06-15, 00:01:07,VALID,918.278,VALID,0.0,VALID,91.481,VALID,-0.019,VALID,20.909,VALID,119.0,VALID,2.042,
2017-06-15, 00:02:07,VALID,918.273,VALID,0.0,VALID,91.573,VALID,-0.017,VALID,20.885,VALID,122.0,VALID,2.205,
2017-06-15, 00:03:07,VALID,918.278,VALID,0.0,VALID,91.535,VALID,-0.006,VALID,20.878,VALID,130.0,VALID,1.694,
2017-06-15, 00:04:07,VALID,918.272,VALID,0.0,VALID,91.695,VALID,-0.013,VALID,20.806,VALID,134.0,VALID,1.774,
2017-06-15, 00:05:07,VALID,918.258,VALID,0.0,VALID,91.905,VALID,-0.01,VALID,20.788,VALID,127.0,VALID,1.818,
2017-06-15, 00:06:07,VALID,918.249,VALID,0.0,VALID,91.985,VALID,-0.003,VALID,20.775,VALID,132.0,VALID,1.314,
2017-06-15, 00:07:07,VALID,918.241,VALID,0.0,VALID,92.026,VALID,0.002,VALID,20.758,VALID,144.0,VALID,1.831,
2017-06-15, 00:08:07,VALID,918.221,VALID,0.0,VALID,91.901,VALID,-0.008,VALID,20.803,VALID,127.0,VALID,1.861,
2017-06-15, 00:09:07,VALID,918.216,VALID,0.0,VALID,91.701,VALID,0.007,VALID,20.819,VALID,142.0,VALID,1.642,
2017-06-15, 00:10:07,VALID,918.214,VALID,0.0,VALID,91.654,VALID,0.025,VALID,20.813,VALID,140.0,VALID,1.546,
2017-06-15, 00:11:07,VALID,918.198,VALID,0.0,VALID,91.624,VALID,0.016,VALID,20.817,VALID,148.0,VALID,1.248,
2017-06-15, 00:12:07,VALID,918.202,VALID,0.0,VALID,91.782,VALID,-0.001,VALID,20.791,VALID,150.0,VALID,1.225,
2017-06-15, 00:13:07,VALID,918.204,VALID,0.0,VALID,92.003,VALID,0.006,VALID,20.766,VALID,161.0,VALID,1.402,
2017-06-15, 00:14:07,VALID,918.204,VALID,0.0,VALID,92.276,VALID,0.009,VALID,20.751,VALID,164.0,VALID,0.948,
2017-06-15, 00:15:07,VALID,918.2,VALID,0.0,VALID,92.438,VALID,0.022,VALID,20.733,VALID,163.0,VALID,0.814,
2017-06-15, 00:16:06,VALID,918.193,VALID,0.0,VALID,92.501,VALID,0.026,VALID,20.709,VALID,158.0,VALID,1.134,
2017-06-15, 00:17:06,VALID,918.199,VALID,0.0,VALID,92.528,VALID,0.02,VALID,20.698,VALID,152.0,VALID,1.676,
2017-06-15, 00:18:06,VALID,918.197,VALID,0.0,VALID,92.496,VALID,0.019,VALID,20.712,VALID,161.0,VALID,1.169,
2017-06-15, 00:19:06,VALID,918.202,VALID,0.0,VALID,92.434,VALID,0.021,VALID,20.727,VALID,149.0,VALID,1.28,
2017-06-15, 00:20:06,VALID,918.204,VALID,0.0,VALID,92.331,VALID,0.018,VALID,20.742,VALID,144.0,VALID,1.349,
2017-06-15, 00:21:06,VALID,918.213,VALID,0.0,VALID,92.269,VALID,0.022,VALID,20.747,VALID,138.0,VALID,1.087,
2017-06-15, 00:22:06,VALID,918.217,VALID,0.0,VALID,92.275,VALID,0.019,VALID,20.745,VALID,135.0,VALID,1.002,
2017-06-15, 00:23:06,VALID,918.216,VALID,0.0,VALID,92.331,VALID,-0.001,VALID,20.744,VALID,136.0,VALID,1.18,
2017-06-15, 00:24:06,VALID,918.219,VALID,0.0,VALID,92.356,VALID,-0.003,VALID,20.768,VALID,137.0,VALID,1.307,
2017-06-15, 00:25:06,VALID,918.207,VALID,0.0,VALID,92.285,VALID,-0.014,VALID,20.809,VALID,134.0,VALID,1.472,
2017-06-15, 00:26:06,VALID,918.2,VALID,0.0,VALID,92.083,VALID,-0.007,VALID,20.832,VALID,140.0,VALID,1.432,
2017-06-15, 00:27:06,VALID,918.177,VALID,0.0,VALID,92.071,VALID,-0.007,VALID,20.827,VALID,140.0,VALID,1.232,
2017-06-15, 00:28:06,VALID,918.158,VALID,0.0,VALID,92.11,VALID,0.001,VALID,20.798,VALID,138.0,VALID,1.038,
2017-06-15, 00:29:06,VALID,918.145,VALID,0.0,VALID,92.335,VALID,-0.015,VALID,20.738,VALID,153.0,VALID,1.477,
2017-06-15, 00:30:06,VALID,918.139,VALID,0.0,VALID,92.595,VALID,-0.012,VALID,20.745,VALID,143.0,VALID,1.726,
2017-06-15, 00:31:06,VALID,918.133,VALID,0.0,VALID,92.568,VALID,-0.028,VALID,20.762,VALID,135.0,VALID,2.038,
2017-06-15, 00:32:06,VALID,918.125,VALID,0.0,VALID,92.487,VALID,-0.015,VALID,20.8,VALID,148.0,VALID,1.763,
2017-06-15, 00:33:06,VALID,918.125,VALID,0.0,VALID,92.434,VALID,-0.003,VALID,20.801,VALID,146.0,VALID,1.753,
2017-06-15, 00:34:06,VALID,918.125,VALID,0.0,VALID,92.476,VALID,0.005,VALID,20.816,VALID,143.0,VALID,2.176,
2017-06-15, 00:35:06,VALID,918.113,VALID,0.0,VALID,92.271,VALID,0.005,VALID,20.869,VALID,148.0,VALID,1.91,
2017-06-15, 00:36:06,VALID,918.105,VALID,0.0,VALID,92.215,VALID,0.012,VALID,20.863,VALID,145.0,VALID,1.96,
2017-06-15, 00:37:06,VALID,918.093,VALID,0.0,VALID,92.397,VALID,-0.003,VALID,20.865,VALID,144.0,VALID,2.197,
2017-06-15, 00:38:06,VALID,918.087,VALID,0.0,VALID,92.458,VALID,0.0,VALID,20.909,VALID,133.0,VALID,2.151,
2017-06-15, 00:39:06,VALID,918.065,VALID,0.0,VALID,92.388,VALID,-0.008,VALID,20.96,VALID,134.0,VALID,1.862,
2017-06-15, 00:40:06,VALID,918.027,VALID,0.0,VALID,92.35,VALID,-0.01,VALID,20.978,VALID,132.0,VALID,2.183,
2017-06-15, 00:41:06,VALID,918.011,VALID,0.0,VALID,92.434,VALID,-0.005,VALID,21.004,VALID,126.0,VALID,2.371,
2017-06-15, 00:42:06,VALID,917.991,VALID,0.0,VALID,92.361,VALID,-0.008,VALID,21.045,VALID,129.0,VALID,1.925,
2017-06-15, 00:43:06,VALID,917.972,VALID,0.0,VALID,92.284,VALID,-0.004,VALID,21.039,VALID,137.0,VALID,2.047,
2017-06-15, 00:44:06,VALID,917.965,VALID,0.0,VALID,92.519,VALID,-0.015,VALID,21.026,VALID,135.0,VALID,2.605,
2017-06-15, 00:45:06,VALID,917.939,VALID,0.0,VALID,92.49,VALID,0.0,VALID,21.086,VALID,125.0,VALID,1.984,
2017-06-15, 00:46:06,VALID,917.944,VALID,0.0,VALID,92.315,VALID,0.002,VALID,21.054,VALID,128.0,VALID,1.977,
2017-06-15, 00:47:06,VALID,917.938,VALID,0.0,VALID,92.578,VALID,-0.02,VALID,21.005,VALID,118.0,VALID,2.046,
2017-06-15, 00:48:06,VALID,917.937,VALID,0.0,VALID,92.796,VALID,-0.012,VALID,21.004,VALID,123.0,VALID,1.561,
2017-06-15, 00:49:06,VALID,917.93,VALID,0.0,VALID,92.882,VALID,0.005,VALID,20.992,VALID,138.0,VALID,1.798,
2017-06-15, 00:50:06,VALID,917.914,VALID,0.0,VALID,93.021,VALID,0.001,VALID,21.023,VALID,133.0,VALID,2.167,
2017-06-15, 00:51:06,VALID,917.909,VALID,0.0,VALID,92.807,VALID,0.001,VALID,21.02,VALID,117.0,VALID,1.333,
2017-06-15, 00:52:06,VALID,917.88,VALID,0.0,VALID,92.949,VALID,0.009,VALID,20.939,VALID,110.0,VALID,1.825,
2017-06-15, 00:53:06,VALID,917.863,VALID,0.0,VALID,93.266,VALID,0.007,VALID,20.904,VALID,117.0,VALID,1.879,
2017-06-15, 00:54:06,VALID,917.839,VALID,0.0,VALID,93.276,VALID,-0.004,VALID,20.914,VALID,115.0,VALID,1.532,
2017-06-15, 00:55:06,VALID,917.829,VALID,0.0,VALID,93.331,VALID,-0.01,VALID,20.883,VALID,118.0,VALID,1.454,
2017-06-15, 00:56:06,VALID,917.823,VALID,0.0,VALID,93.531,VALID,-0.011,VALID,20.903,VALID,107.0,VALID,1.599,
2017-06-15, 00:57:06,VALID,917.835,VALID,0.0,VALID,93.439,VALID,-0.009,VALID,20.917,VALID,118.0,VALID,1.33,
2017-06-15, 00:58:06,VALID,917.838,VALID,0.0,VALID,93.379,VALID,-0.021,VALID,20.934,VALID,126.0,VALID,1.486,
2017-06-15, 00:59:06,VALID,917.85,VALID,0.0,VALID,93.282,VALID,-0.007,VALID,20.922,VALID,135.0,VALID,1.398,
2017-06-15, 01:00:06,VALID,917.842,VALID,0.0,VALID,93.43,VALID,-0.012,VALID,20.901,VALID,127.0,VALID,1.619,
2017-06-15, 01:01:06,VALID,917.837,VALID,0.0,VALID,93.479,VALID,0.009,VALID,20.903,VALID,110.0,VALID,0.693,
2017-06-15, 01:02:06,VALID,917.837,VALID,0.0,VALID,93.458,VALID,-0.016,VALID,20.852,VALID,98.0,VALID,0.507,
2017-06-15, 01:03:06,VALID,917.833,VALID,0.0,VALID,93.621,VALID,-0.01,VALID,20.807,VALID,97.0,VALID,0.591,
2017-06-15, 01:04:06,VALID,917.822,VALID,0.0,VALID,93.84,VALID,-0.001,VALID,20.765,VALID,94.0,VALID,0.521,
2017-06-15, 01:05:06,VALID,917.803,VALID,0.0,VALID,94.008,VALID,-0.02,VALID,20.741,VALID,108.0,VALID,0.363,
2017-06-15, 01:06:06,VALID,917.804,VALID,0.0,VALID,94.145,VALID,0.002,VALID,20.728,VALID,107.0,VALID,0.371,
2017-06-15, 01:07:06,VALID,917.79,VALID,0.0,VALID,94.175,VALID,0.002,VALID,20.713,VALID,121.0,VALID,0.246,
2017-06-15, 01:08:06,VALID,917.775,VALID,0.0,VALID,94.379,VALID,0.008,VALID,20.733,VALID,112.0,VALID,0.913,
2017-06-15, 01:09:06,VALID,917.763,VALID,0.0,VALID,94.264,VALID,0.007,VALID,20.823,VALID,133.0,VALID,0.846,
2017-06-15, 01:10:06,VALID,917.75,VALID,0.0,VALID,93.805,VALID,-0.003,VALID,20.886,VALID,116.0,VALID,0.459,
2017-06-15, 01:11:06,VALID,917.743,VALID,0.0,VALID,93.479,VALID,-0.011,VALID,20.896,VALID,135.0,VALID,0.227,
2017-06-15, 01:12:06,VALID,917.733,VALID,0.0,VALID,93.429,VALID,-0.005,VALID,20.88,VALID,156.0,VALID,0.066,
2017-06-15, 01:13:06,VALID,917.71,VALID,0.0,VALID,93.513,VALID,0.009,VALID,20.871,VALID,174.0,VALID,0.166,
2017-06-15, 01:14:06,VALID,917.701,VALID,0.0,VALID,93.289,VALID,-0.003,VALID,20.83,VALID,209.0,VALID,0.298,
2017-06-15, 01:15:06,VALID,917.693,VALID,0.0,VALID,93.367,VALID,-0.013,VALID,20.623,VALID,254.0,VALID,0.359,
2017-06-15, 01:16:06,VALID,917.688,VALID,0.0,VALID,94.227,VALID,-0.0,VALID,20.39,VALID,255.0,VALID,0.11,
2017-06-15, 01:17:06,VALID,917.687,VALID,0.0,VALID,95.001,VALID,-0.0,VALID,20.235,VALID,255.0,VALID,0.202,
2017-06-15, 01:18:06,VALID,917.678,VALID,0.0,VALID,95.511,VALID,-0.01,VALID,20.118,VALID,261.0,VALID,0.141,
2017-06-15, 01:19:06,VALID,917.678,VALID,0.0,VALID,96.006,VALID,-0.011,VALID,20.048,VALID,266.0,VALID,0.066,
2017-06-15, 01:20:06,VALID,917.675,VALID,0.0,VALID,96.254,VALID,0.0,VALID,19.995,VALID,266.0,VALID,0.066,
2017-06-15, 01:21:06,VALID,917.679,VALID,0.0,VALID,96.576,VALID,-0.021,VALID,19.964,VALID,266.0,VALID,0.0,
2017-06-15, 01:22:06,VALID,917.669,VALID,0.0,VALID,97.058,VALID,-0.023,VALID,19.996,VALID,266.0,VALID,0.0,
2017-06-15, 01:23:06,VALID,917.67,VALID,0.0,VALID,97.226,VALID,-0.006,VALID,20.016,VALID,266.0,VALID,0.0,
2017-06-15, 01:24:06,VALID,917.667,VALID,0.0,VALID,97.25,VALID,0.016,VALID,20.028,VALID,266.0,VALID,0.0,
2017-06-15, 01:25:06,VALID,917.671,VALID,0.0,VALID,97.262,VALID,0.018,VALID,20.036,VALID,266.0,VALID,0.0,
2017-06-15, 01:26:06,VALID,917.658,VALID,0.0,VALID,97.221,VALID,0.019,VALID,20.033,VALID,266.0,VALID,0.0,
2017-06-15, 01:27:06,VALID,917.646,VALID,0.0,VALID,97.165,VALID,-0.003,VALID,20.022,VALID,266.0,VALID,0.0,
2017-06-15, 01:28:06,VALID,917.627,VALID,0.0,VALID,97.287,VALID,-0.006,VALID,20.057,VALID,279.0,VALID,0.0,
2017-06-15, 01:29:06,VALID,917.624,VALID,0.0,VALID,97.222,VALID,0.011,VALID,20.086,VALID,284.0,VALID,0.0,
2017-06-15, 01:30:06,VALID,917.611,VALID,0.0,VALID,96.98,VALID,-0.001,VALID,20.065,VALID,35.0,VALID,0.0,
2017-06-15, 01:31:06,VALID,917.605,VALID,0.0,VALID,96.902,VALID,-0.01,VALID,20.063,VALID,49.0,VALID,0.0,
2017-06-15, 01:32:06,VALID,917.597,VALID,0.0,VALID,96.826,VALID,-0.0,VALID,20.055,VALID,128.0,VALID,0.111,
2017-06-15, 01:33:06,VALID,917.58,VALID,0.0,VALID,96.835,VALID,0.006,VALID,20.075,VALID,156.0,VALID,0.663,
2017-06-15, 01:34:06,VALID,917.572,VALID,0.0,VALID,96.924,VALID,0.003,VALID,20.1,VALID,153.0,VALID,0.768,
2017-06-15, 01:35:06,VALID,917.566,VALID,0.0,VALID,96.756,VALID,-0.0,VALID,20.115,VALID,154.0,VALID,1.176,
2017-06-15, 01:36:06,VALID,917.539,VALID,0.0,VALID,96.867,VALID,0.013,VALID,20.177,VALID,149.0,VALID,1.292,
2017-06-15, 01:37:06,VALID,917.53,VALID,0.0,VALID,96.792,VALID,0.009,VALID,20.238,VALID,138.0,VALID,1.394,
2017-06-15, 01:38:06,VALID,917.522,VALID,0.0,VALID,96.702,VALID,-0.003,VALID,20.313,VALID,142.0,VALID,1.95,
2017-06-15, 01:39:06,VALID,917.508,VALID,0.0,VALID,96.573,VALID,-0.008,VALID,20.422,VALID,137.0,VALID,1.863,
2017-06-15, 01:40:06,VALID,917.495,VALID,0.0,VALID,96.18,VALID,-0.002,VALID,20.512,VALID,136.0,VALID,1.658,
2017-06-15, 01:41:06,VALID,917.485,VALID,0.0,VALID,95.895,VALID,-0.006,VALID,20.606,VALID,133.0,VALID,2.175,
2017-06-15, 01:42:06,VALID,917.482,VALID,0.0,VALID,95.479,VALID,-0.009,VALID,20.694,VALID,146.0,VALID,1.834,
2017-06-15, 01:43:06,VALID,917.481,VALID,0.0,VALID,95.1,VALID,-0.001,VALID,20.71,VALID,146.0,VALID,1.772,
2017-06-15, 01:44:06,VALID,917.492,VALID,0.0,VALID,95.082,VALID,0.001,VALID,20.714,VALID,143.0,VALID,2.1,
2017-06-15, 01:45:06,VALID,917.479,VALID,0.0,VALID,95.011,VALID,-0.017,VALID,20.768,VALID,145.0,VALID,1.83,
2017-06-15, 01:46:06,VALID,917.495,VALID,0.0,VALID,94.784,VALID,-0.021,VALID,20.836,VALID,145.0,VALID,2.154,
2017-06-15, 01:47:06,VALID,917.502,VALID,0.0,VALID,94.433,VALID,0.003,VALID,20.898,VALID,142.0,VALID,1.973,
2017-06-15, 01:48:06,VALID,917.507,VALID,0.0,VALID,94.148,VALID,0.007,VALID,20.943,VALID,143.0,VALID,1.875,
2017-06-15, 01:49:06,VALID,917.512,VALID,0.0,VALID,93.965,VALID,-0.003,VALID,20.957,VALID,138.0,VALID,1.601,
2017-06-15, 01:50:06,VALID,917.493,VALID,0.0,VALID,93.856,VALID,-0.002,VALID,20.957,VALID,139.0,VALID,1.647,
2017-06-15, 01:51:06,VALID,917.497,VALID,0.0,VALID,93.821,VALID,-0.02,VALID,20.963,VALID,135.0,VALID,1.377,
2017-06-15, 01:52:06,VALID,917.485,VALID,0.0,VALID,93.761,VALID,0.009,VALID,21.012,VALID,133.0,VALID,1.788,
2017-06-15, 01:53:06,VALID,917.475,VALID,0.0,VALID,93.493,VALID,-0.002,VALID,21.073,VALID,131.0,VALID,2.041,
2017-06-15, 01:54:06,VALID,917.47,VALID,0.0,VALID,93.188,VALID,-0.001,VALID,21.093,VALID,132.0,VALID,1.488,
2017-06-15, 01:55:06,VALID,917.461,VALID,0.0,VALID,93.266,VALID,0.006,VALID,21.07,VALID,123.0,VALID,2.003,
2017-06-15, 01:56:06,VALID,917.467,VALID,0.0,VALID,93.37,VALID,-0.006,VALID,21.114,VALID,126.0,VALID,2.124,
2017-06-15, 01:57:06,VALID,917.47,VALID,0.0,VALID,93.024,VALID,-0.015,VALID,21.175,VALID,133.0,VALID,1.8,
2017-06-15, 01:58:06,VALID,917.48,VALID,0.0,VALID,92.854,VALID,-0.003,VALID,21.163,VALID,128.0,VALID,1.832,
2017-06-15, 01:59:06,VALID,917.47,VALID,0.0,VALID,92.812,VALID,0.007,VALID,21.122,VALID,125.0,VALID,1.823,
2017-06-15, 02:00:06,VALID,917.482,VALID,0.0,VALID,93.092,VALID,-0.004,VALID,21.087,VALID,136.0,VALID,1.613,
2017-06-15, 02:01:06,VALID,917.47,VALID,0.0,VALID,93.216,VALID,0.011,VALID,21.043,VALID,138.0,VALID,1.543,
2017-06-15, 02:02:06,VALID,917.475,VALID,0.0,VALID,93.389,VALID,0.01,VALID,20.992,VALID,138.0,VALID,1.909,
2017-06-15, 02:03:06,VALID,917.469,VALID,0.0,VALID,93.737,VALID,0.007,VALID,20.967,VALID,150.0,VALID,1.826,
2017-06-15, 02:04:06,VALID,917.465,VALID,0.0,VALID,93.633,VALID,-0.006,VALID,20.935,VALID,150.0,VALID,1.437,
2017-06-15, 02:05:06,VALID,917.461,VALID,0.0,VALID,93.785,VALID,-0.013,VALID,20.853,VALID,150.0,VALID,1.454,
2017-06-15, 02:06:06,VALID,917.458,VALID,0.0,VALID,94.35,VALID,-0.021,VALID,20.829,VALID,151.0,VALID,1.763,
2017-06-15, 02:07:06,VALID,917.445,VALID,0.0,VALID,94.433,VALID,-0.014,VALID,20.83,VALID,161.0,VALID,1.541,
2017-06-15, 02:08:06,VALID,917.429,VALID,0.0,VALID,94.395,VALID,-0.001,VALID,20.816,VALID,163.0,VALID,1.335,
2017-06-15, 02:09:06,VALID,917.418,VALID,0.0,VALID,94.549,VALID,0.033,VALID,20.819,VALID,158.0,VALID,1.188,
2017-06-15, 02:10:06,VALID,917.4,VALID,0.0,VALID,94.448,VALID,0.027,VALID,20.805,VALID,163.0,VALID,0.953,
2017-06-15, 02:11:06,VALID,917.385,VALID,0.0,VALID,94.521,VALID,0.022,VALID,20.785,VALID,162.0,VALID,1.295,
2017-06-15, 02:12:06,VALID,917.373,VALID,0.0,VALID,94.571,VALID,0.039,VALID,20.783,VALID,168.0,VALID,1.416,
2017-06-15, 02:13:06,VALID,917.351,VALID,0.0,VALID,94.611,VALID,0.024,VALID,20.8,VALID,170.0,VALID,1.43,
2017-06-15, 02:14:06,VALID,917.328,VALID,0.0,VALID,94.623,VALID,0.012,VALID,20.835,VALID,163.0,VALID,1.564,
2017-06-15, 02:15:06,VALID,917.338,VALID,0.0,VALID,94.393,VALID,0.022,VALID,20.864,VALID,157.0,VALID,1.248,
2017-06-15, 02:16:06,VALID,917.322,VALID,0.0,VALID,94.242,VALID,0.031,VALID,20.857,VALID,160.0,VALID,1.394,
2017-06-15, 02:17:06,VALID,917.335,VALID,0.0,VALID,94.345,VALID,0.016,VALID,20.862,VALID,149.0,VALID,1.596,
2017-06-15, 02:18:06,VALID,917.321,VALID,0.0,VALID,94.136,VALID,0.029,VALID,20.879,VALID,162.0,VALID,1.098,
2017-06-15, 02:19:06,VALID,917.331,VALID,0.0,VALID,94.196,VALID,0.021,VALID,20.908,VALID,160.0,VALID,1.283,
2017-06-15, 02:20:06,VALID,917.339,VALID,0.0,VALID,93.855,VALID,0.015,VALID,20.909,VALID,156.0,VALID,0.904,
2017-06-15, 02:21:06,VALID,917.343,VALID,0.0,VALID,93.83,VALID,0.022,VALID,20.886,VALID,143.0,VALID,1.314,
2017-06-15, 02:22:06,VALID,917.347,VALID,0.0,VALID,94.085,VALID,0.033,VALID,20.891,VALID,143.0,VALID,1.163,
2017-06-15, 02:23:06,VALID,917.356,VALID,0.0,VALID,93.938,VALID,0.015,VALID,20.884,VALID,141.0,VALID,1.249,
2017-06-15, 02:24:06,VALID,917.341,VALID,0.0,VALID,94.022,VALID,0.02,VALID,20.868,VALID,148.0,VALID,1.293,
2017-06-15, 02:25:06,VALID,917.339,VALID,0.0,VALID,94.015,VALID,0.014,VALID,20.889,VALID,159.0,VALID,1.078,
2017-06-15, 02:26:06,VALID,917.327,VALID,0.0,VALID,93.723,VALID,0.016,VALID,20.908,VALID,127.0,VALID,1.355,
2017-06-15, 02:27:06,VALID,917.341,VALID,0.0,VALID,93.427,VALID,0.019,VALID,20.915,VALID,150.0,VALID,0.589,
2017-06-15, 02:28:06,VALID,917.343,VALID,0.0,VALID,93.475,VALID,0.01,VALID,20.891,VALID,176.0,VALID,0.646,
2017-06-15, 02:29:06,VALID,917.345,VALID,0.0,VALID,93.624,VALID,0.015,VALID,20.856,VALID,178.0,VALID,0.259,
2017-06-15, 02:30:06,VALID,917.36,VALID,0.0,VALID,93.704,VALID,0.007,VALID,20.815,VALID,169.0,VALID,0.162,
2017-06-15, 02:31:06,VALID,917.359,VALID,0.0,VALID,93.437,VALID,-0.007,VALID,20.716,VALID,243.0,VALID,0.396,
2017-06-15, 02:32:06,VALID,917.362,VALID,0.0,VALID,93.393,VALID,0.01,VALID,20.44,VALID,280.0,VALID,0.403,
2017-06-15, 02:33:06,VALID,917.359,VALID,0.0,VALID,94.441,VALID,0.002,VALID,20.216,VALID,283.0,VALID,0.096,
2017-06-15, 02:34:06,VALID,917.37,VALID,0.0,VALID,95.229,VALID,0.008,VALID,20.082,VALID,300.0,VALID,0.232,
2017-06-15, 02:35:06,VALID,917.358,VALID,0.0,VALID,95.648,VALID,0.001,VALID,19.976,VALID,306.0,VALID,0.125,
2017-06-15, 02:36:06,VALID,917.361,VALID,0.0,VALID,96.161,VALID,0.006,VALID,19.912,VALID,349.0,VALID,0.435,
2017-06-15, 02:37:06,VALID,917.356,VALID,0.0,VALID,96.382,VALID,0.006,VALID,19.86,VALID,4.0,VALID,0.485,
2017-06-15, 02:38:06,VALID,917.361,VALID,0.0,VALID,96.22,VALID,-0.003,VALID,19.77,VALID,4.0,VALID,0.267,
2017-06-15, 02:39:06,VALID,917.358,VALID,0.0,VALID,96.191,VALID,-0.005,VALID,19.685,VALID,9.0,VALID,0.569,
2017-06-15, 02:40:06,VALID,917.356,VALID,0.0,VALID,96.134,VALID,-0.003,VALID,19.598,VALID,13.0,VALID,0.923,
2017-06-15, 02:41:06,VALID,917.357,VALID,0.0,VALID,96.247,VALID,-0.006,VALID,19.529,VALID,4.0,VALID,0.412,
2017-06-15, 02:42:06,VALID,917.349,VALID,0.0,VALID,96.48,VALID,-0.006,VALID,19.495,VALID,5.0,VALID,0.011,
2017-06-15, 02:43:06,VALID,917.352,VALID,0.0,VALID,96.666,VALID,-0.012,VALID,19.48,VALID,23.0,VALID,0.147,
2017-06-15, 02:44:06,VALID,917.346,VALID,0.0,VALID,96.842,VALID,-0.014,VALID,19.474,VALID,49.0,VALID,0.072,
2017-06-15, 02:45:06,VALID,917.357,VALID,0.0,VALID,97.118,VALID,0.004,VALID,19.505,VALID,54.0,VALID,0.009,
2017-06-15, 02:46:06,VALID,917.358,VALID,0.0,VALID,97.234,VALID,-0.003,VALID,19.511,VALID,54.0,VALID,0.0,
2017-06-15, 02:47:06,VALID,917.364,VALID,0.0,VALID,97.212,VALID,0.013,VALID,19.494,VALID,54.0,VALID,0.0,
2017-06-15, 02:48:06,VALID,917.388,VALID,0.0,VALID,97.245,VALID,0.005,VALID,19.481,VALID,54.0,VALID,0.0,
2017-06-15, 02:49:06,VALID,917.397,VALID,0.0,VALID,97.304,VALID,0.01,VALID,19.48,VALID,54.0,VALID,0.0,
2017-06-15, 02:50:06,VALID,917.414,VALID,0.0,VALID,97.3,VALID,-0.011,VALID,19.468,VALID,54.0,VALID,0.0,
2017-06-15, 02:51:06,VALID,917.422,VALID,0.0,VALID,97.264,VALID,-0.001,VALID,19.44,VALID,54.0,VALID,0.0,
2017-06-15, 02:52:06,VALID,917.416,VALID,0.0,VALID,97.247,VALID,-0.023,VALID,19.421,VALID,55.0,VALID,0.0,
2017-06-15, 02:53:06,VALID,917.423,VALID,0.0,VALID,97.205,VALID,-0.015,VALID,19.395,VALID,56.0,VALID,0.0,
2017-06-15, 02:54:06,VALID,917.414,VALID,0.0,VALID,97.232,VALID,-0.005,VALID,19.386,VALID,56.0,VALID,0.0,
2017-06-15, 02:55:06,VALID,917.415,VALID,0.0,VALID,97.234,VALID,0.01,VALID,19.379,VALID,56.0,VALID,0.0,
2017-06-15, 02:56:06,VALID,917.417,VALID,0.0,VALID,97.285,VALID,0.015,VALID,19.387,VALID,137.0,VALID,0.166,
2017-06-15, 02:57:06,VALID,917.417,VALID,0.0,VALID,97.343,VALID,0.013,VALID,19.409,VALID,155.0,VALID,0.145,
2017-06-15, 02:58:06,VALID,917.406,VALID,0.0,VALID,97.358,VALID,0.019,VALID,19.428,VALID,155.0,VALID,0.008,
2017-06-15, 02:59:06,VALID,917.411,VALID,0.0,VALID,97.328,VALID,0.02,VALID,19.45,VALID,155.0,VALID,0.0,
2017-06-15, 03:00:06,VALID,917.405,VALID,0.0,VALID,97.274,VALID,0.015,VALID,19.47,VALID,155.0,VALID,0.0,
2017-06-15, 03:01:06,VALID,917.395,VALID,0.0,VALID,97.2,VALID,-0.0,VALID,19.475,VALID,155.0,VALID,0.0,
2017-06-15, 03:02:06,VALID,917.39,VALID,0.0,VALID,97.101,VALID,-0.002,VALID,19.469,VALID,155.0,VALID,0.0,
2017-06-15, 03:03:06,VALID,917.398,VALID,0.0,VALID,97.131,VALID,0.007,VALID,19.482,VALID,155.0,VALID,0.0,
2017-06-15, 03:04:06,VALID,917.379,VALID,0.0,VALID,97.004,VALID,0.019,VALID,19.472,VALID,155.0,VALID,0.0,
2017-06-15, 03:05:06,VALID,917.362,VALID,0.0,VALID,96.772,VALID,0.014,VALID,19.428,VALID,155.0,VALID,0.0,
2017-06-15, 03:06:06,VALID,917.35,VALID,0.0,VALID,96.882,VALID,0.004,VALID,19.445,VALID,155.0,VALID,0.016,
2017-06-15, 03:07:06,VALID,917.334,VALID,0.0,VALID,96.658,VALID,0.012,VALID,19.42,VALID,151.0,VALID,0.259,
2017-06-15, 03:08:06,VALID,917.318,VALID,0.0,VALID,96.164,VALID,0.006,VALID,19.317,VALID,122.0,VALID,0.553,
2017-06-15, 03:09:06,VALID,917.311,VALID,0.0,VALID,96.36,VALID,-0.002,VALID,19.272,VALID,126.0,VALID,0.698,
2017-06-15, 03:10:06,VALID,917.309,VALID,0.0,VALID,96.936,VALID,-0.006,VALID,19.302,VALID,127.0,VALID,0.485,
2017-06-15, 03:11:06,VALID,917.311,VALID,0.0,VALID,97.124,VALID,-0.011,VALID,19.328,VALID,127.0,VALID,0.458,
2017-06-15, 03:12:06,VALID,917.334,VALID,0.0,VALID,96.963,VALID,0.001,VALID,19.279,VALID,111.0,VALID,0.675,
2017-06-15, 03:13:06,VALID,917.361,VALID,0.0,VALID,96.969,VALID,-0.006,VALID,19.292,VALID,114.0,VALID,0.598,
2017-06-15, 03:14:06,VALID,917.378,VALID,0.0,VALID,97.537,VALID,-0.019,VALID,19.421,VALID,117.0,VALID,0.582,
2017-06-15, 03:15:06,VALID,917.406,VALID,0.0,VALID,97.728,VALID,-0.008,VALID,19.503,VALID,131.0,VALID,0.671,
2017-06-15, 03:16:06,VALID,917.43,VALID,0.0,VALID,97.677,VALID,0.011,VALID,19.504,VALID,135.0,VALID,0.564,
2017-06-15, 03:17:06,VALID,917.454,VALID,0.0,VALID,97.698,VALID,0.007,VALID,19.522,VALID,136.0,VALID,0.486,
2017-06-15, 03:18:06,VALID,917.459,VALID,0.0,VALID,97.685,VALID,-0.002,VALID,19.509,VALID,122.0,VALID,0.486,
2017-06-15, 03:19:06,VALID,917.469,VALID,0.0,VALID,97.656,VALID,-0.002,VALID,19.489,VALID,127.0,VALID,0.768,
2017-06-15, 03:20:06,VALID,917.47,VALID,0.0,VALID,97.647,VALID,-0.011,VALID,19.465,VALID,133.0,VALID,0.818,
2017-06-15, 03:21:06,VALID,917.485,VALID,0.0,VALID,97.644,VALID,-0.012,VALID,19.44,VALID,142.0,VALID,1.121,
2017-06-15, 03:22:06,VALID,917.487,VALID,0.0,VALID,97.801,VALID,0.002,VALID,19.455,VALID,150.0,VALID,1.143,
2017-06-15, 03:23:06,VALID,917.478,VALID,0.0,VALID,97.819,VALID,-0.004,VALID,19.429,VALID,157.0,VALID,1.107,
2017-06-15, 03:24:06,VALID,917.48,VALID,0.0,VALID,97.948,VALID,-0.014,VALID,19.462,VALID,160.0,VALID,1.244,
2017-06-15, 03:25:06,VALID,917.477,VALID,0.0,VALID,98.091,VALID,0.002,VALID,19.486,VALID,162.0,VALID,0.981,
2017-06-15, 03:26:06,VALID,917.482,VALID,0.0,VALID,98.032,VALID,-0.001,VALID,19.433,VALID,158.0,VALID,0.791,
2017-06-15, 03:27:06,VALID,917.474,VALID,0.0,VALID,97.959,VALID,-0.003,VALID,19.377,VALID,151.0,VALID,0.968,
2017-06-15, 03:28:06,VALID,917.48,VALID,0.0,VALID,98.002,VALID,-0.003,VALID,19.351,VALID,143.0,VALID,1.153,
2017-06-15, 03:29:06,VALID,917.475,VALID,0.0,VALID,97.827,VALID,-0.015,VALID,19.216,VALID,133.0,VALID,0.975,
2017-06-15, 03:30:06,VALID,917.482,VALID,0.0,VALID,97.762,VALID,-0.013,VALID,19.123,VALID,129.0,VALID,0.746,
2017-06-15, 03:31:06,VALID,917.479,VALID,0.0,VALID,97.808,VALID,-0.004,VALID,19.066,VALID,125.0,VALID,0.652,
2017-06-15, 03:32:06,VALID,917.47,VALID,0.0,VALID,97.863,VALID,-0.009,VALID,19.024,VALID,122.0,VALID,0.839,
2017-06-15, 03:33:06,VALID,917.472,VALID,0.0,VALID,98.013,VALID,-0.004,VALID,19.06,VALID,122.0,VALID,1.143,
2017-06-15, 03:34:06,VALID,917.468,VALID,0.0,VALID,98.251,VALID,-0.015,VALID,19.162,VALID,125.0,VALID,1.346,
2017-06-15, 03:35:06,VALID,917.45,VALID,0.0,VALID,98.382,VALID,-0.026,VALID,19.262,VALID,127.0,VALID,1.176,
2017-06-15, 03:36:06,VALID,917.442,VALID,0.0,VALID,98.465,VALID,-0.009,VALID,19.371,VALID,122.0,VALID,1.034,
2017-06-15, 03:37:06,VALID,917.424,VALID,0.0,VALID,98.501,VALID,-0.009,VALID,19.449,VALID,127.0,VALID,0.91,
2017-06-15, 03:38:06,VALID,917.412,VALID,0.0,VALID,98.473,VALID,0.003,VALID,19.466,VALID,125.0,VALID,0.986,
2017-06-15, 03:39:06,VALID,917.402,VALID,0.0,VALID,98.423,VALID,0.004,VALID,19.48,VALID,119.0,VALID,0.947,